[[{"header":{"parameterUnit":"m.s-1","parameterCategory":1,"la1":30.2991,"la2":30.254,"lo1":-89.0895,"lo2":-89.0444,"dy":0.0017,"dx":0.0017,"nx":28,"ny":28,"refTime":"2024-03-03T09:00:00:Z","depth":0,"parameterNumber":2,"parameterNumberName":"U-component_of_WINDS"},"data":[0,0,0,0,0,0,0,0,0,0,0,0,0,0,0,0,0,0,0,0,0,0,0,0,0,0,0,0,0,0,0,0,0,0,0,0,0,0,0,0,0,0,0,0,0,0,0,0,0,0,0,0,0,0,0,0,0,0,-4.4917,-4.4917,0,-4.4893,-4.4893,-4.4893,-4.4795,-4.4793,-4.4791,-4.4788,-4.4765,-4.4767,-4.4768,0,0,0,0,0,0,0,0,0,0,0,0,0,-4.488,-4.4882,-4.4917,-4.4917,-4.4916,-4.4893,-4.4893,-4.4893,-4.4795,-4.4793,-4.479,-4.4787,-4.4765,-4.4766,-4.4768,0,0,0,0,0,0,0,0,0,0,0,0,0,-4.4881,-4.4882,-4.4917,-4.4865,-4.486,-4.4893,-4.4893,-4.4893,-4.4796,-4.4793,-4.4789,-4.4786,-4.4764,-4.4766,-4.4768,-4.485,0,0,-4.4775,-4.4776,0,0,0,0,0,0,0,0,-4.4881,-4.4882,-4.4873,-4.4869,-4.4863,-4.4844,-4.4871,-4.4878,-4.4797,-4.482,-4.4788,-4.4784,-4.4794,-4.4794,-4.4797,-4.4849,-4.4848,-4.4775,-4.4777,-4.4778,-4.4778,0,0,0,0,0,0,0,-4.4881,-4.4882,-4.4908,-4.4873,-4.4867,-4.4844,-4.484,-4.4872,-4.4827,-4.4818,-4.4811,-4.4809,-4.4791,-4.4795,-4.4795,-4.4848,-4.4775,-4.4777,-4.4779,-4.478,-4.4968,-4.4971,0,0,0,0,0,0,-4.4888,-4.4883,-4.4908,-4.4907,-4.4864,-4.4847,-4.4843,-4.4853,-4.4826,-4.4819,-4.4812,-4.4805,-4.4793,-4.4793,-4.4794,-4.4888,-4.4778,-4.478,-4.4781,-4.4964,-4.4968,-4.4972,0,0,0,0,0,0,-4.4887,-4.4891,-4.4909,-4.4893,-4.4894,-4.4851,-4.4864,-4.4855,-4.4858,-4.4822,-4.4813,-4.4825,-4.479,-4.4791,-4.4837,-4.4886,-4.4781,-4.4783,-4.496,-4.4965,-4.497,-4.5078,0,0,0,0,0,0,-4.4887,-4.4891,-4.4921,-4.4894,-4.4895,-4.4952,-4.4867,-4.4857,-4.4862,-4.4853,-4.4831,-4.4824,-4.4787,-4.4834,-4.484,-4.4887,-4.4785,-4.4955,-4.4962,-4.4969,-4.507,-4.5086,-4.51,0,0,0,0,0,-4.4886,-4.4952,-4.4923,-4.4927,-4.4931,-4.4955,-4.4955,-4.4912,-4.4867,-4.4897,-4.4874,-4.4825,-4.4881,-4.484,-4.4845,-4.4894,-4.4952,-4.496,-4.4968,-4.5063,-4.5083,-4.51,0,0,0,0,0,0,-4.4985,-4.4948,-4.4915,-4.4975,-4.4969,-4.4939,-4.4975,-4.4934,-4.4941,-4.4932,-4.4877,-4.4873,-4.4928,-4.4916,-4.4871,-4.4973,-4.4908,-4.4918,-4.4978,-4.4997,-4.5012,-4.5014,-4.4787,0,0,0,0,0,-4.5015,-4.5037,-4.5003,-4.5059,-4.5058,-4.5018,-4.5026,-4.4993,-4.4985,-4.4982,-4.4962,-4.4956,-4.4973,-4.4984,-4.4997,-4.5068,-4.5062,-4.5105,-4.512,-4.5133,-4.5142,-4.5179,-4.5198,-4.4999,-4.4999,-4.4999,0,0,-4.5074,-4.5057,-4.5074,-4.5078,-4.507,-4.5095,-4.5016,-4.5045,-4.5063,-4.4986,-4.5029,-4.5015,-4.5005,-4.5064,-4.5089,-4.5056,-4.5196,-4.5143,-4.5154,-4.5155,-4.519,-4.5208,-4.5225,-4.5005,-4.5004,-4.5003,0,0,-4.5196,-4.5185,-4.5231,-4.5225,-4.5213,-4.5186,-4.5198,-4.5174,-4.5162,-4.5203,-4.5147,-4.5168,-4.5197,-4.5193,-4.5195,-4.5318,-4.5274,-4.5324,-4.5404,-4.5442,-4.5457,-4.5471,-4.5515,-4.5532,-4.5333,-4.5334,-4.5334,0,-4.5272,-4.5306,-4.5259,-4.5293,-4.5297,-4.523,-4.5276,-4.5273,-4.5267,-4.5271,-4.5234,-4.527,-4.5259,-4.5317,-4.5347,-4.5351,-4.5363,-4.5326,-4.5459,-4.5472,-4.5484,-4.5526,-4.5542,-4.534,-4.5339,-4.5338,-4.5338,0,-4.5401,-4.5426,-4.5465,-4.5461,-4.5469,-4.551,-4.5469,-4.5484,-4.5452,-4.5429,-4.5474,-4.5458,-4.5467,-4.5479,-4.5447,-4.5533,-4.5513,-4.5468,-4.5402,-4.551,-4.5548,-4.5564,-4.5349,-4.5346,-4.5344,-4.5343,0,0,-4.5582,-4.5553,-4.5568,-4.5566,-4.555,-4.5569,-4.5607,-4.5616,-4.563,-4.5629,-4.566,-4.5688,-4.5647,-4.5649,-4.5617,-4.565,-4.5749,-4.5601,-4.56,-4.5629,-4.5844,-4.5877,-4.5896,-4.5721,-4.5723,-4.5726,-4.5845,0,-4.5698,-4.576,-4.572,-4.5789,-4.5813,-4.5751,-4.5784,-4.5778,-4.5759,-4.5777,-4.5756,-4.5776,-4.5721,-4.5722,-4.5752,-4.5731,-4.5792,-4.5722,-4.5749,-4.575,-4.5752,-4.5916,-4.595,-4.6063,-4.5859,-4.5862,-4.5864,0,-4.584,-4.5846,-4.5918,-4.5899,-4.5907,-4.5938,-4.5944,-4.5962,-4.5955,-4.5939,-4.5943,-4.5903,-4.594,-4.5876,-4.5926,-4.588,-4.5889,-4.5881,-4.5884,-4.5884,-4.5813,-4.592,-4.6098,-4.6115,-4.5887,-4.5885,-4.5883,0,-4.5965,-4.5991,-4.6038,-4.6038,-4.6017,-4.604,-4.6033,-4.6023,-4.6031,-4.6037,-4.6043,-4.6053,-4.6059,-4.6068,-4.6033,-4.5989,-4.6089,-4.6021,-4.6076,-4.6078,-4.6099,-4.6098,-4.6281,-4.6107,-4.6106,-4.6106,-4.6106,0,-4.6098,-4.6144,-4.6094,-4.6122,-4.6173,-4.6128,-4.6179,-4.6165,-4.6157,-4.6183,-4.613,-4.6155,-4.6107,-4.6127,-4.61,-4.6147,-4.615,-4.6138,-4.613,-4.6142,-4.6144,-4.6146,-4.6137,-4.611,-4.6109,-4.6109,-4.6108,0,-4.6245,-4.6213,-4.626,-4.6237,-4.6233,-4.6271,-4.6252,-4.6278,-4.6256,-4.6289,-4.6294,-4.6261,-4.6282,-4.6248,-4.6266,-4.6247,-4.6312,-4.6292,-4.6314,-4.6308,-4.6365,-4.636,-4.6556,-4.6579,-4.6391,-4.6393,-4.6394,0,-4.6332,-4.6366,-4.6348,-4.6361,-4.6357,-4.6379,-4.6388,-4.6346,-4.6358,-4.6354,-4.6381,-4.6398,-4.641,-4.6448,-4.6425,-4.6439,-4.6419,-4.6486,-4.642,-4.6432,-4.6419,-4.6418,-4.6421,-4.6499,-4.6502,-4.6504,-4.6505,0,-4.6488,-4.6471,-4.6486,-4.6497,-4.651,-4.6516,-4.6518,-4.6532,-4.6488,-4.6504,-4.6526,-4.6535,-4.6554,-4.6572,-4.6581,-4.6574,-4.6533,-4.6527,-4.654,-4.6552,-4.6563,-4.6558,-4.6351,-4.6522,-4.652,-4.6519,-4.6518,-4.6517,-4.6607,-4.6635,-4.6627,-4.6646,-4.6644,-4.6648,-4.6672,-4.6654,-4.6672,-4.6684,-4.6658,-4.6687,-4.6681,-4.6688,-4.6686,-4.6708,-4.6679,-4.6698,-4.6703,-4.6708,-4.6717,-4.6561,-4.671,-4.6709,-4.6709,-4.6708,-4.6708,0,-4.6761,-4.6753,-4.6772,-4.6777,-4.6793,-4.6754,-4.6755,-4.6771,-4.6796,-4.6795,-4.6808,-4.6834,-4.6852,-4.6832,-4.6847,-4.6869,-4.685,-4.6874,-4.6871,-4.687,-4.6743,-4.6729,-4.6888,-4.6888,-4.6888,-4.6888,-4.6888,-4.6888,-4.6842,-4.6888,-4.6871,-4.6916,-4.6908,-4.6936,-4.694,-4.6944,-4.6943,-4.6974,-4.6989,-4.6976,-4.6968,-4.6982,-4.6997,-4.6991,-4.6998,-4.7029,-4.7016,-4.6897,-4.6879,-4.6862,-4.6849,-4.7031,-4.7031,-4.7141,-4.7143,-4.7143]},{"header":{"parameterUnit":"m.s-1","parameterCategory":1,"la1":30.2991,"la2":30.254,"lo1":-89.0895,"lo2":-89.0444,"dy":0.0017,"dx":0.0017,"nx":28,"ny":28,"refTime":"2024-03-03T09:00:00:Z","depth":0,"parameterNumber":3,"parameterNumberName":"V-component_of_WINDS"},"data":[0,0,0,0,0,0,0,0,0,0,0,0,0,0,0,0,0,0,0,0,0,0,0,0,0,0,0,0,0,0,0,0,0,0,0,0,0,0,0,0,0,0,0,0,0,0,0,0,0,0,0,0,0,0,0,0,0,0,0.5999,0.6,0,0.6045,0.6046,0.6046,0.61,0.6101,0.6102,0.6102,0.6147,0.6148,0.6148,0,0,0,0,0,0,0,0,0,0,0,0,0,0.5958,0.5959,0.5999,0.6,0.6001,0.6045,0.6046,0.6046,0.61,0.6101,0.6102,0.6103,0.6147,0.6148,0.6148,0,0,0,0,0,0,0,0,0,0,0,0,0,0.5987,0.5959,0.5999,0.6033,0.6036,0.6045,0.6046,0.6047,0.61,0.6101,0.6102,0.6103,0.6147,0.6148,0.6148,0.6128,0,0,0.615,0.6151,0,0,0,0,0,0,0,0,0.5986,0.5989,0.6027,0.603,0.6034,0.6068,0.6048,0.6074,0.6099,0.6075,0.6102,0.6104,0.612,0.6123,0.6129,0.613,0.6132,0.615,0.6151,0.6151,0.6151,0,0,0,0,0,0,0,0.5983,0.5987,0.6018,0.6028,0.6032,0.6045,0.6051,0.6053,0.609,0.6078,0.6082,0.6086,0.6122,0.6128,0.613,0.6132,0.615,0.6151,0.6151,0.6152,0.6122,0.6121,0,0,0,0,0,0,0.5977,0.5985,0.6016,0.6019,0.6013,0.6045,0.6051,0.6056,0.609,0.6097,0.6085,0.6089,0.6126,0.6129,0.6132,0.6112,0.6151,0.6152,0.6152,0.6123,0.6122,0.612,0,0,0,0,0,0,0.5975,0.5979,0.6014,0.6003,0.6009,0.6045,0.6049,0.6056,0.6062,0.6096,0.6103,0.6085,0.6127,0.6131,0.6129,0.6114,0.6152,0.6153,0.6125,0.6123,0.6121,0.6071,0,0,0,0,0,0,0.5974,0.5978,0.597,0.6003,0.6009,0.601,0.6049,0.6056,0.6064,0.6068,0.6097,0.6103,0.6129,0.6128,0.613,0.6116,0.6153,0.6126,0.6124,0.6122,0.6074,0.6068,0.6062,0,0,0,0,0,0.5972,0.5953,0.597,0.5973,0.6,0.6009,0.6013,0.6043,0.6062,0.6055,0.6077,0.6102,0.6116,0.6127,0.613,0.6116,0.6127,0.6124,0.6122,0.6077,0.6069,0.6062,0,0,0,0,0,0,0.5917,0.5958,0.5977,0.5967,0.5985,0.6018,0.601,0.6034,0.6045,0.6049,0.6086,0.6092,0.6086,0.6101,0.6113,0.6099,0.6125,0.6123,0.609,0.6083,0.6077,0.6074,0.6154,0,0,0,0,0,0.5904,0.5908,0.5944,0.5932,0.594,0.5974,0.5979,0.6001,0.602,0.6027,0.6049,0.6066,0.6075,0.608,0.6089,0.6076,0.6084,0.6068,0.6062,0.6057,0.6055,0.6052,0.6046,0.6112,0.6112,0.6112,0,0,0.5876,0.59,0.59,0.5922,0.5938,0.5942,0.5979,0.5981,0.5985,0.6027,0.6028,0.6045,0.6066,0.606,0.6058,0.6072,0.6039,0.6054,0.605,0.605,0.6049,0.6042,0.6037,0.611,0.611,0.6111,0,0,0.5829,0.5846,0.584,0.5856,0.588,0.5903,0.5902,0.5932,0.5946,0.5947,0.598,0.5984,0.5997,0.6013,0.6022,0.5983,0.6007,0.5985,0.5954,0.5951,0.5945,0.5941,0.5929,0.5924,0.5983,0.5982,0.5982,0,0.5792,0.58,0.5833,0.5835,0.5844,0.5884,0.5879,0.5892,0.5918,0.5923,0.5939,0.5958,0.5975,0.5974,0.5965,0.5971,0.5971,0.5982,0.5943,0.5939,0.5936,0.5925,0.592,0.598,0.598,0.598,0.5981,0,0.5754,0.5759,0.5751,0.5777,0.5785,0.5782,0.5816,0.5821,0.5843,0.5864,0.5866,0.5889,0.5905,0.5906,0.5926,0.5908,0.5916,0.5937,0.5964,0.5926,0.5917,0.5913,0.5976,0.5977,0.5978,0.5978,0,0,0.5672,0.5718,0.5715,0.5728,0.5759,0.5764,0.5764,0.578,0.5785,0.5801,0.5803,0.5815,0.5835,0.5846,0.5868,0.5865,0.5836,0.5887,0.5888,0.5878,0.5819,0.5805,0.5799,0.5852,0.5851,0.5851,0.5818,0,0.5631,0.5634,0.5666,0.566,0.5667,0.5706,0.5706,0.5725,0.5746,0.5754,0.5777,0.5785,0.581,0.5817,0.5816,0.5839,0.5825,0.5842,0.5855,0.5855,0.5849,0.5794,0.5777,0.5746,0.5814,0.5814,0.5813,0,0.5584,0.56,0.5595,0.5629,0.5633,0.5632,0.5652,0.5659,0.5682,0.5698,0.5711,0.5737,0.5741,0.5766,0.5771,0.5783,0.579,0.5802,0.5802,0.5805,0.5832,0.5796,0.5736,0.5732,0.5807,0.5808,0.5808,0,0.5527,0.5547,0.5548,0.5557,0.5596,0.5596,0.5611,0.5636,0.5645,0.5662,0.5668,0.5685,0.5694,0.5706,0.5737,0.5752,0.574,0.5767,0.5753,0.5753,0.5749,0.5749,0.569,0.5752,0.5752,0.5752,0.5752,0,0.5478,0.5474,0.5523,0.5523,0.5521,0.5557,0.5554,0.5573,0.5596,0.5601,0.5635,0.564,0.568,0.5689,0.5713,0.5715,0.5718,0.5731,0.5738,0.5729,0.5728,0.5735,0.5738,0.5751,0.5751,0.5751,0.5751,0,0.5414,0.5446,0.545,0.5487,0.5497,0.5493,0.5525,0.5528,0.5551,0.5558,0.5561,0.5598,0.5611,0.5643,0.5663,0.5679,0.5676,0.5687,0.5668,0.5673,0.5658,0.566,0.5603,0.5598,0.5661,0.566,0.5659,0,0.5382,0.538,0.5418,0.5425,0.544,0.545,0.546,0.5496,0.5505,0.5533,0.5532,0.5548,0.5563,0.5582,0.561,0.5627,0.564,0.5619,0.5642,0.5634,0.5642,0.5642,0.5643,0.5614,0.5613,0.5612,0.5611,0,0.5322,0.5339,0.5352,0.5371,0.5383,0.54,0.5418,0.5422,0.5463,0.5471,0.5486,0.5497,0.552,0.5536,0.5557,0.5574,0.56,0.5604,0.5602,0.5593,0.5583,0.559,0.5656,0.5605,0.5606,0.5606,0.5606,0.5607,0.5274,0.5275,0.5303,0.5317,0.5336,0.5353,0.5358,0.5383,0.5396,0.5418,0.5438,0.5451,0.5477,0.5508,0.5524,0.5535,0.5548,0.5544,0.5544,0.5543,0.554,0.5581,0.5538,0.5538,0.5539,0.5539,0.5539,0,0.5217,0.5238,0.525,0.5277,0.5289,0.5313,0.5335,0.5344,0.5355,0.5377,0.5391,0.5409,0.5425,0.5456,0.5475,0.5478,0.549,0.5482,0.5482,0.5486,0.5526,0.5526,0.5471,0.5471,0.5471,0.5471,0.5471,0.5471,0.5189,0.5194,0.5214,0.5228,0.5249,0.5262,0.5273,0.529,0.5308,0.5327,0.5341,0.5361,0.5387,0.5409,0.5425,0.5434,0.544,0.5428,0.544,0.5477,0.5483,0.5489,0.549,0.5428,0.5428,0.54,0.54,0.5399]}]]